Radiation Dose at Monitoring Post of Fukushima Daini Nuclear Power Station
Date,Time,MP-1(microSv/h),MP-2(microSv/h),MP-3(microSv/h),MP-4(microSv/h),MP-5(microSv/h),MP-6(microSv/h),MP-7(microSv/h),Wind Direction,Wind Velocity(m/s),Rain
2017/06/10,00:00,0.370,0.231,0.397,0.365,0.328,0.192,0.119,south-southwest,0.6,No
2017/06/10,00:10,0.369,0.231,0.396,0.368,0.329,0.191,0.118,northwest,1.2,No
2017/06/10,00:20,0.367,0.231,0.395,0.366,0.330,0.191,0.118,west-northwest,3.1,No
2017/06/10,00:30,0.366,0.230,0.396,0.366,0.328,0.190,0.118,west-northwest,3.8,No
2017/06/10,00:40,0.369,0.231,0.398,0.365,0.328,0.191,0.118,west,3.8,No
2017/06/10,00:50,0.368,0.229,0.395,0.363,0.329,0.190,0.117,west-northwest,2.5,No
2017/06/10,01:00,0.368,0.229,0.398,0.366,0.330,0.191,0.117,west-northwest,1.9,No
2017/06/10,01:10,0.367,0.230,0.394,0.365,0.327,0.190,0.117,northwest,1.9,No
2017/06/10,01:20,0.369,0.228,0.398,0.364,0.329,0.190,0.117,east,1.1,No
2017/06/10,01:30,0.368,0.231,0.396,0.364,0.326,0.191,0.117,east-southeast,2.2,No
2017/06/10,01:40,0.369,0.230,0.398,0.367,0.330,0.189,0.118,east-southeast,3.4,No
2017/06/10,01:50,0.367,0.230,0.396,0.364,0.328,0.189,0.118,east,3.0,No
2017/06/10,02:00,0.371,0.229,0.396,0.365,0.328,0.189,0.118,east-southeast,2.5,No
2017/06/10,02:10,0.368,0.230,0.394,0.364,0.327,0.190,0.117,east,2.1,No
2017/06/10,02:20,0.369,0.231,0.397,0.366,0.329,0.189,0.117,east-southeast,1.8,No
2017/06/10,02:30,0.366,0.229,0.396,0.363,0.328,0.190,0.118,east,0.8,No
2017/06/10,02:40,0.369,0.231,0.395,0.366,0.328,0.190,0.117,south-southeast,1.2,No
2017/06/10,02:50,0.366,0.229,0.398,0.365,0.328,0.190,0.117,south,1.4,No
2017/06/10,03:00,0.369,0.229,0.395,0.366,0.328,0.190,0.117,south-southeast,0.7,No
2017/06/10,03:10,0.366,0.230,0.397,0.364,0.328,0.190,0.118,east-northeast,1.1,No
2017/06/10,03:20,0.368,0.228,0.393,0.367,0.326,0.190,0.118,east,0.8,No
2017/06/10,03:30,0.368,0.231,0.398,0.365,0.329,0.189,0.117,east-northeast,0.7,No
2017/06/10,03:40,0.368,0.230,0.396,0.366,0.327,0.190,0.117,east,0.5,No
2017/06/10,03:50,0.368,0.229,0.396,0.366,0.332,0.190,0.117,east-northeast,0.8,No
2017/06/10,04:00,0.367,0.229,0.395,0.366,0.327,0.189,0.118,northeast,1.1,No
2017/06/10,04:10,0.367,0.231,0.396,0.365,0.330,0.189,0.117,northeast,1.1,No
2017/06/10,04:20,0.367,0.230,0.396,0.363,0.327,0.190,0.118,north-northeast,2.5,No
2017/06/10,04:30,0.368,0.231,0.396,0.366,0.330,0.190,0.118,northeast,2.8,No
2017/06/10,04:40,0.367,0.230,0.396,0.366,0.326,0.190,0.117,north-northeast,3.9,No
2017/06/10,04:50,0.367,0.230,0.394,0.367,0.328,0.190,0.119,north-northeast,3.4,No
2017/06/10,05:00,0.367,0.229,0.398,0.364,0.328,0.189,0.117,north-northeast,2.8,No
2017/06/10,05:10,0.369,0.231,0.395,0.367,0.328,0.190,0.118,north-northeast,1.5,No
2017/06/10,05:20,0.368,0.228,0.396,0.365,0.328,0.189,0.117,north-northeast,1.7,No
2017/06/10,05:30,0.371,0.229,0.395,0.366,0.328,0.189,0.117,north-northeast,1.6,No
2017/06/10,05:40,0.365,0.229,0.397,0.364,0.329,0.189,0.117,north,1.8,No
2017/06/10,05:50,0.369,0.230,0.394,0.366,0.328,0.189,0.117,north,2.9,No
2017/06/10,06:00,0.366,0.229,0.396,0.364,0.326,0.190,0.117,west,1.4,No
2017/06/10,06:10,0.370,0.230,0.396,0.366,0.327,0.189,0.117,west,1.1,No
2017/06/10,06:20,0.365,0.229,0.397,0.364,0.325,0.190,0.117,northwest,0.9,No
2017/06/10,06:30,0.370,0.230,0.396,0.367,0.329,0.189,0.118,northwest,2.1,No
2017/06/10,06:40,0.367,0.230,0.396,0.364,0.325,0.190,0.117,north-northeast,0.7,No
2017/06/10,06:50,0.370,0.229,0.394,0.365,0.327,0.190,0.116,-,CALM,No
2017/06/10,07:00,0.368,0.230,0.399,0.361,0.327,0.190,0.117,south-southwest,1.9,No
2017/06/10,07:10,0.367,0.232,0.393,0.365,0.326,0.190,0.118,south,2.4,No
2017/06/10,07:20,0.369,0.230,0.392,0.365,0.328,0.191,0.118,south-southeast,2.9,No
2017/06/10,07:30,0.364,0.228,0.395,0.361,0.326,0.190,0.117,south,2.7,No
2017/06/10,07:40,0.370,0.227,0.393,0.366,0.328,0.191,0.117,south-southeast,3.4,No
2017/06/10,07:50,0.366,0.229,0.392,0.365,0.329,0.190,0.118,south,4.2,No
2017/06/10,08:00,0.364,0.230,0.390,0.362,0.326,0.189,0.117,south-southeast,4.2,No
2017/06/10,08:10,0.366,0.228,0.389,0.360,0.324,0.190,0.116,south,4.1,No
2017/06/10,08:20,0.368,0.228,0.396,0.361,0.329,0.189,0.116,south,3.2,No
2017/06/10,08:30,0.365,0.228,0.395,0.365,0.328,0.189,0.115,south,2.3,No
2017/06/10,08:40,0.365,0.226,0.393,0.362,0.325,0.189,0.116,south,3.8,No
2017/06/10,08:50,0.370,0.227,0.392,0.362,0.323,0.189,0.118,south,3.4,No
2017/06/10,09:00,0.367,0.227,0.391,0.362,0.324,0.190,0.118,south,1.3,No
2017/06/10,09:10,0.364,0.227,0.391,0.362,0.324,0.189,0.117,south-southeast,2.5,No
2017/06/10,09:20,0.365,0.230,0.394,0.360,0.328,0.189,0.116,south-southeast,1.8,No
2017/06/10,09:30,0.369,0.229,0.398,0.360,0.331,0.190,0.118,south-southeast,1.2,No
2017/06/10,09:40,0.368,0.229,0.395,0.367,0.329,0.190,0.118,southeast,1.2,No
2017/06/10,09:50,0.366,0.228,0.394,0.367,0.327,0.189,0.117,south-southeast,2.5,No
2017/06/10,10:00,0.370,0.231,0.398,0.364,0.331,0.190,0.117,south-southeast,4.1,No
2017/06/10,10:10,0.371,0.232,0.399,0.361,0.329,0.190,0.118,south-southeast,4.3,No
2017/06/10,10:20,0.367,0.230,0.395,0.366,0.326,0.189,0.117,south,4.5,No
2017/06/10,10:30,0.365,0.229,0.392,0.367,0.327,0.189,0.117,south-southeast,5.0,No
2017/06/10,10:40,0.363,0.227,0.390,0.365,0.324,0.189,0.117,south,4.8,No
2017/06/10,10:50,0.364,0.229,0.391,0.363,0.328,0.190,0.117,south,5.0,No
2017/06/10,11:00,0.370,0.231,0.399,0.360,0.330,0.189,0.118,south,5.0,No
2017/06/10,11:10,0.369,0.230,0.396,0.362,0.328,0.189,0.117,south,6.0,No
2017/06/10,11:20,0.365,0.228,0.395,0.363,0.327,0.190,0.117,south,8.6,No
2017/06/10,11:30,0.365,0.228,0.394,0.362,0.327,0.189,0.116,south,10.2,No
2017/06/10,11:40,0.363,0.228,0.393,0.360,0.325,0.190,0.117,south,10.5,No
2017/06/10,11:50,0.363,0.229,0.392,0.363,0.324,0.190,0.117,south,11.6,No
2017/06/10,12:00,0.364,0.230,0.392,0.364,0.328,0.189,0.118,south,12.1,No
2017/06/10,12:10,0.367,0.229,0.394,0.364,0.326,0.190,0.119,south,11.4,No
2017/06/10,12:20,0.372,0.229,0.391,0.365,0.326,0.190,0.118,south,15.1,No
2017/06/10,12:30,0.370,0.229,0.394,0.365,0.326,0.189,0.117,south,11.8,No
2017/06/10,12:40,0.367,0.229,0.394,0.366,0.326,0.191,0.117,south,11.7,No
2017/06/10,12:50,0.366,0.229,0.393,0.369,0.329,0.190,0.119,south,12.8,Yes
2017/06/10,13:00,0.366,0.233,0.397,0.367,0.331,0.190,0.118,south,11.5,Yes
2017/06/10,13:10,0.372,0.233,0.400,0.366,0.327,0.191,0.116,south,11.2,No
2017/06/10,13:20,0.370,0.230,0.397,0.368,0.327,0.192,0.118,south,12.9,Yes
2017/06/10,13:30,0.368,0.233,0.394,0.369,0.333,0.191,0.118,south-southwest,13.2,Yes
2017/06/10,13:40,0.373,0.232,0.402,0.367,0.331,0.193,0.119,south-southwest,11.8,Yes
2017/06/10,13:50,0.373,0.234,0.402,0.373,0.332,0.196,0.122,south-southwest,9.1,Yes
2017/06/10,14:00,0.376,0.242,0.405,0.372,0.336,0.195,0.122,south-southwest,4.3,Yes
2017/06/10,14:10,0.380,0.240,0.406,0.374,0.333,0.198,0.124,west-southwest,1.3,Yes
2017/06/10,14:20,0.376,0.243,0.400,0.375,0.338,0.198,0.124,north-northeast,1.1,Yes
2017/06/10,14:30,0.377,0.241,0.403,0.369,0.331,0.195,0.122,north,1.2,No
2017/06/10,14:40,0.373,0.236,0.398,0.369,0.330,0.196,0.123,-,CALM,Yes
2017/06/10,14:50,0.368,0.237,0.393,0.369,0.332,0.195,0.122,-,CALM,Yes
2017/06/10,15:00,0.373,0.236,0.397,0.365,0.330,0.192,0.121,south-southwest,0.9,No
2017/06/10,15:10,0.369,0.231,0.394,0.363,0.326,0.192,0.120,west-northwest,0.8,No
2017/06/10,15:20,0.364,0.232,0.391,0.365,0.323,0.192,0.120,northwest,0.9,No
2017/06/10,15:30,0.367,0.232,0.392,0.359,0.328,0.191,0.118,northwest,1.5,No
2017/06/10,15:40,0.366,0.228,0.392,0.360,0.326,0.190,0.119,northwest,1.4,No
2017/06/10,15:50,0.363,0.230,0.388,0.362,0.322,0.191,0.119,north-northwest,4.4,Yes
2017/06/10,16:00,0.367,0.229,0.393,0.357,0.327,0.190,0.119,north-northwest,6.7,Yes
2017/06/10,16:10,0.364,0.228,0.390,0.362,0.326,0.190,0.121,north-northwest,6.7,Yes
2017/06/10,16:20,0.365,0.229,0.391,0.360,0.327,0.192,0.119,north-northwest,4.4,Yes
2017/06/10,16:30,0.367,0.228,0.393,0.360,0.327,0.190,0.121,north,3.5,No
2017/06/10,16:40,0.362,0.229,0.388,0.360,0.324,0.190,0.120,north-northwest,5.9,No
2017/06/10,16:50,0.366,0.227,0.392,0.355,0.326,0.190,0.119,north-northwest,5.3,No
2017/06/10,17:00,0.363,0.228,0.389,0.359,0.326,0.189,0.119,north-northwest,2.0,No
2017/06/10,17:10,0.362,0.227,0.389,0.357,0.322,0.190,0.118,northwest,3.4,No
2017/06/10,17:20,0.365,0.227,0.386,0.358,0.327,0.188,0.118,north-northwest,4.3,No
2017/06/10,17:30,0.360,0.227,0.387,0.359,0.325,0.189,0.117,north,5.9,No
2017/06/10,17:40,0.366,0.225,0.391,0.357,0.324,0.188,0.117,northwest,4.5,No
2017/06/10,17:50,0.362,0.226,0.386,0.358,0.325,0.188,0.118,north-northwest,2.9,No
2017/06/10,18:00,0.364,0.224,0.390,0.354,0.323,0.188,0.117,northwest,4.4,No
2017/06/10,18:10,0.364,0.226,0.385,0.359,0.326,0.187,0.117,north-northwest,3.9,No
2017/06/10,18:20,0.362,0.225,0.391,0.356,0.322,0.187,0.117,north-northwest,8.5,Yes
2017/06/10,18:30,0.365,0.226,0.389,0.359,0.325,0.188,0.118,northwest,7.3,Yes
2017/06/10,18:40,0.363,0.227,0.390,0.357,0.323,0.189,0.116,northwest,6.1,Yes
2017/06/10,18:50,0.366,0.227,0.389,0.358,0.324,0.189,0.118,northwest,7.9,Yes
2017/06/10,19:00,0.363,0.228,0.391,0.357,0.325,0.190,0.118,west-northwest,10.1,Yes
2017/06/10,19:10,0.365,0.226,0.388,0.360,0.325,0.190,0.119,west-northwest,11.3,No
2017/06/10,19:20,0.363,0.227,0.391,0.358,0.325,0.189,0.118,northwest,12.9,No
2017/06/10,19:30,0.366,0.226,0.388,0.359,0.325,0.189,0.118,northwest,14.7,Yes
2017/06/10,19:40,0.365,0.226,0.392,0.359,0.325,0.189,0.118,west-northwest,17.1,Yes
2017/06/10,19:50,0.365,0.227,0.389,0.358,0.324,0.189,0.119,west-northwest,15.2,No
2017/06/10,20:00,0.364,0.225,0.391,0.357,0.324,0.189,0.117,west-northwest,13.4,No
2017/06/10,20:10,0.365,0.228,0.389,0.358,0.325,0.188,0.119,west-northwest,9.4,No
2017/06/10,20:20,0.365,0.228,0.393,0.357,0.325,0.189,0.117,west-northwest,11.2,No
2017/06/10,20:30,0.365,0.226,0.389,0.358,0.325,0.189,0.117,west-northwest,11.8,No
2017/06/10,20:40,0.364,0.225,0.391,0.356,0.323,0.189,0.118,west-northwest,12.4,No
2017/06/10,20:50,0.368,0.226,0.390,0.360,0.325,0.188,0.117,west-northwest,9.0,No
2017/06/10,21:00,0.366,0.227,0.391,0.357,0.323,0.190,0.117,west-northwest,7.5,No
2017/06/10,21:10,0.367,0.227,0.390,0.359,0.326,0.187,0.117,west-northwest,7.8,No
2017/06/10,21:20,0.365,0.227,0.390,0.358,0.325,0.189,0.118,west-northwest,11.8,No
2017/06/10,21:30,0.368,0.227,0.391,0.360,0.327,0.188,0.117,west-northwest,8.2,No
2017/06/10,21:40,0.365,0.228,0.390,0.357,0.324,0.188,0.117,northwest,5.9,No
2017/06/10,21:50,0.369,0.228,0.390,0.358,0.325,0.189,0.117,northwest,6.8,No
2017/06/10,22:00,0.365,0.228,0.390,0.358,0.324,0.189,0.117,northwest,5.3,No
2017/06/10,22:10,0.369,0.228,0.394,0.360,0.323,0.190,0.118,north-northwest,5.9,No
2017/06/10,22:20,0.367,0.227,0.390,0.357,0.324,0.188,0.117,north,4.8,No
2017/06/10,22:30,0.366,0.228,0.391,0.358,0.323,0.188,0.117,north-northwest,7.0,No
2017/06/10,22:40,0.365,0.227,0.392,0.359,0.325,0.188,0.118,northwest,6.2,No
2017/06/10,22:50,0.367,0.227,0.390,0.357,0.324,0.189,0.117,northwest,5.7,No
2017/06/10,23:00,0.365,0.226,0.391,0.359,0.326,0.189,0.117,north-northwest,4.5,No
2017/06/10,23:10,0.367,0.227,0.389,0.358,0.323,0.189,0.117,north,4.2,No
2017/06/10,23:20,0.365,0.228,0.390,0.360,0.324,0.190,0.117,north-northeast,3.3,No
2017/06/10,23:30,0.366,0.226,0.389,0.358,0.324,0.188,0.117,north,3.6,No
2017/06/10,23:40,0.365,0.227,0.392,0.359,0.325,0.189,0.117,north,4.1,No
2017/06/10,23:50,0.367,0.227,0.389,0.357,0.325,0.189,0.117,north-northeast,3.9,No
